ROMMA est une association bénévole à but non lucratif. Votre soutien est indispensable : ADHERER à ROMMA ou FAIRE un DON

Chambon - (38, Isère)

Oisans (2460 m)   Longitude: 06° 10' 42" E   Latitude: 45° 01' 32" N Station partenaire n°803
 

Détail journalier du     <<     >>

Température Humidité Vent Dir Rafale Dir. rafale Neige 1 Neige 2
Heure (°C) (%) (km/h) (km/h) (cm) (cm)
01:00 -3.48720SSO39SSO068
02:00 -3.89214SO30SO068
03:00 -4.29315SO34SO068
04:00 -4.7979OSO29OSO069
05:00 -3.98114SSO35SSO068
06:00 -4.17314SSO34SSO069
07:00 -4.17811SSO33SSO069
08:00 -4.0707S28S068
09:00 -3.95912S41S068
10:00 -2.65118S44S069
11:00 -2.35424S52SSO068
12:00 -2.25628SSO65SSO068
13:00 -1.65717SSO65SSO067
14:00 -1.8619SE47SE068
15:00 -1.66413SE54SSO067
16:00 -0.86022S60S066
17:00 -1.57315S60S067
18:00 -1.5736SSO52SSO067
19:00
20:00
21:00
22:00 -0.17323SSE77SSE2668
23:00 0.76621SSE80S067
minuit 0.57029SSE84SSE071

Graphique du 22-11-2019

 

Serveur OMMA